Regional Weather Roundup
Issued by NWS

Home | Current Version | Previous Version | Text Only | Print | Product List | Glossary On
Versions: 1 2 3 4 5 6 7 8 9 10 11 12 13 14 15 16 17 18 19 20 21 22 23 24 25 26 27 28 29 30 31 32 33 34 35 36 37 38 39 40 41 42 43 44 45 46 47 48 49 50
000
ASUS43 KDTX 290110
RWRMI
MICHIGAN HOURLY REGIONAL WEATHER ROUNDUP
NATIONAL WEATHER SERVICE DETROIT/PONTIAC MI
900 PM EDT SAT MAR 28 2015

NOTE: "FAIR" INDICATES FEW OR NO CLOUDS BELOW 12,000 FEET WITH NO
SIGNIFICANT WEATHER AND/OR OBSTRUCTION TO VISIBILITY.

MIZ047>049-052>055-059>063-066>070-074>076-081>083-290200-
SOUTHEAST LOWER MICHIGAN

CITY           SKY/WX    TMP DP  RH WIND       PRES   REMARKS
ADRIAN         CLEAR     29  12  49 W3        30.28S
ALMA           CLEAR     30   9  40 SW3       30.26R
ANN ARBOR      CLEAR     25  10  53 CALM      30.27S
BAD AXE        CLEAR     28  14  57 SW6       30.24S
DETROIT CITY   CLEAR     30  16  56 S6        30.29R
DETROIT        CLEAR     31   7  36 CALM      30.29R
FLINT          CLEAR     32   7  35 SW3       30.27S
GROSSE ILE     CLEAR     28  21  74 S5        30.28R
HILLSDALE      CLEAR     30   3  32 CALM      30.26R
HOWELL         CLEAR     30   7  37 CALM      30.26R

CITY           SKY/WX    TMP DP  RH WIND       PRES   REMARKS
JACKSON        CLEAR     28   5  37 CALM      30.27R
LAMBERTVILLE   CLEAR     30  16  55 CALM      30.29R
LANSING        CLEAR     30   5  34 SW5       30.27R
LAPEER         NOT AVBL
MASON          CLEAR     29   6  36 CALM      30.27R
MONROE         CLEAR     28  18  64 CALM      30.27S
MT. CLEMENS    CLEAR     26  16  67 S3        30.26R
PONTIAC        CLEAR     29   5  36 W3        30.25S
PORT HOPE        N/A     24  14  65 SE6       30.23S
PORT HURON     CLEAR     23  18  80 CALM      30.29S
TRI CITIES     CLEAR     32  10  40 S7        30.25S
YPSILANTI      CLEAR     33   7  33 CALM      30.28S
$$
MIZ043>046-050>051-056>058-064>065-071>073-077>080-290200-
SOUTHWEST LOWER MICHIGAN

CITY           SKY/WX    TMP DP  RH WIND       PRES   REMARKS
BATTLE CREEK   CLEAR     31  10  41 W10       30.28R
BENTON HARBOR  CLEAR     22  11  62 CALM      30.31S
BIG RAPIDS     CLEAR     29  10  45 W7        30.23F
COLDWATER      CLEAR     30   2  31 SW3       30.28R
HOLLAND        CLEAR     24  12  60 SW5       30.30F
GRAND RAPIDS   CLEAR     27  10  49 W8        30.28S
KALAMAZOO      CLEAR     29  11  47 NW7       30.28S
MARSHALL       CLEAR     28   6  38 CALM      30.26S
MUSKEGON       CLEAR     26  11  52 SE3       30.29F
$$
MIZ016>042-290200-
NORTHERN LOWER MICHIGAN

CITY           SKY/WX    TMP DP  RH WIND       PRES   REMARKS
ALPENA         CLEAR     23  15  71 SE5       30.23S
BEAVER ISLAND  CLEAR     24  17  75 CALM      30.21S
BELLAIRE       CLEAR     25   7  47 CALM      30.24S
CADILLAC       CLEAR     27   3  36 W7        30.20S
CHARLEVOIX     CLEAR     25   9  49 CALM      30.25S
FRANKFORT      CLEAR     28  12  52 CALM      30.23S
GAYLORD        CLEAR     25   7  46 W5        30.19S
GRAYLING       CLEAR     26   5  41 W3        30.21S
HARBOR SPRINGS CLEAR     20  13  73 CALM      30.23R
HOUGHTON LAKE  CLEAR     28   9  44 W3        30.20S
MANISTEE       CLEAR     27   5  39 S3        30.25S
OSCODA         CLEAR     27  17  65 CALM      30.22F
PELLSTON       CLEAR     24   2  38 CALM      30.22F
TRAVERSE CITY  CLEAR     27  11  51 CALM      30.23S
$$
MIZ007>008-015-290200-
EASTERN UPPER MICHIGAN

CITY           SKY/WX    TMP DP  RH WIND       PRES   REMARKS
KINROSS        CLEAR     23  14  68 SW5       30.20R
MACKINAC ISLAN CLEAR     21  16  81 SW7       30.21R
NEWBERRY       CLEAR     23  17  79 S8        30.17S
S. S. MARIE    CLEAR     24   7  48 SW7       30.19R
$$
MIZ004>006-011>014-085-290200-
CENTRAL UPPER MICHIGAN

CITY           SKY/WX    TMP DP  RH WIND       PRES   REMARKS
MANISTIQUE     PTCLDY    28  24  87 S13G18    30.19R
ESCANABA       CLEAR     30  23  74 S12G17    30.16S
MENOMINEE      CLEAR     30  21  69 S9        30.17S
SAWYER-GWINN   CLEAR     28  16  59 S12       30.09F
$$
MIZ001>003-009>011-084-290200-
WESTERN UPPER MICHIGAN

CITY           SKY/WX    TMP DP  RH WIND       PRES   REMARKS
IRON MOUNTAIN  CLEAR     34   8  33 SW6       30.09F
HOUGHTON       MOCLDY    27  13  55 E7        30.03F
COPPER HARBOR    N/A     27  11  51 VRB7      30.06F
IRONWOOD       MOCLDY    37  10  32 S8        30.00F
$$

ABBREVIATIONS USED IN REMARKS
   TC - TEMPERATURE IN CELSIUS
  WCI - WIND CHILL INDEX
   HX - HEAT INDEX
  VSB - VISIBILITY




USA.gov is the U.S. government's official web portal to all federal, state and local government web resources and services.